Accueil
Images satellite Prévisions 15 joursClimatMétéo marine Cyclones Foudre AéroportsFAQ Actualités A propos
Météo : Europe Afrique Amérique du Nord Amérique du Sud Asie Australie-Océanie Autres
Langues Contact

Bauru, São Paulo, Brésil

latitude: 22-19S, longitude: 049-04W, altitude: 590 m


METAR: SBBU 272000Z 18006KT 9999 FEW035 29/24 Q1011
TAF: absent

Heure: 18:31 (20:31 UTC)

Observation

Le bulletin a été fait il y a 31 minutes, à 20:00 UTC
Vent 6 kt de sud
Température 29°C
Humidité 74%
Pression 1011 hPa
Visibilité 10 km ou plus
Quelques nuages à une hauteur de 3500 ft

Changer d'unités
Les informations qui figurent sur ce site font l'objet d'une clause de non-responsabilité
Météo : Europe Afrique Amérique du Nord Amérique du Sud Asie Australie-Océanie Autres
Images satellite Prévisions 15 joursClimatMétéo marine Cyclones Foudre AéroportsFAQ Langues Contact Actualités A propos